K5EBQ Weather Reports


Display with metric or nautical units.
time (UTC)temp
F
wind
direction
speed
MPH
gust
MPH
rain 1hr
in
rain 24hr
in
rain mn
in
humidity
%
barometer
mb
20220119114540 58 197 0.0 0.0 0.00 0.00 0.00 92 1011.3
20220119113023 59 197 0.0 0.0 0.00 0.00 0.00 91 1011.4
20220119111530 59 197 0.0 0.0 0.00 0.00 0.00 91 1011.3
20220119110026 59 197 0.0 0.0 0.00 0.00 0.00 90 1011.2
20220119104559 60 197 0.0 0.0 0.00 0.00 0.00 90 1011.1
20220119103016 61 197 0.0 0.0 0.00 0.00 0.00 89 1011.3
20220119101519 61 197 0.0 0.0 0.00 0.00 0.00 88 1011.3
20220119100015 62 197 0.0 0.0 0.00 0.00 0.00 87 1011.3
20220119094508 62 197 0.0 0.0 0.00 0.00 0.00 87 1011.5
20220119093007 63 197 0.0 0.0 0.00 0.00 0.00 86 1011.3
20220119091505 63 197 0.0 0.0 0.00 0.00 0.00 85 1011.5
20220119090010 64 197 0.0 0.0 0.00 0.00 0.00 84 1011.7
20220119084501 64 200 0.0 0.0 0.00 0.00 0.00 84 1011.8
20220119083001 64 200 0.0 0.0 0.00 0.00 0.00 84 1011.9
20220119081654 64 198 0.0 0.0 0.00 0.00 0.00 83 1011.8
20220119080225 64 184 0.0 0.0 0.00 0.00 0.00 83 1011.9
20220119074652 64 203 0.0 0.0 0.00 0.00 0.00 82 1012.1
20220119073254 64 205 0.0 0.0 0.00 0.00 0.00 82 1012.2
20220119071654 64 154 0.0 0.0 0.00 0.00 0.00 82 1012.3
20220119070128 64 155 0.0 0.0 0.00 0.00 0.00 82 1012.6
20220119064618 63 153 0.0 0.0 0.00 0.00 0.00 83 1012.6
20220119063101 63 153 0.0 0.0 0.00 0.00 0.00 83 1012.4
20220119061617 63 153 0.0 0.0 0.00 0.00 0.00 83 1012.3
20220119060126 63 153 0.0 0.0 0.00 0.00 0.00 83 1012.8
20220119054546 62 153 0.0 0.0 0.00 0.00 0.00 83 1012.7
20220119053125 62 153 0.0 0.0 0.00 0.00 0.00 82 1012.5
20220119051554 62 151 0.0 0.0 0.00 0.00 0.00 82 1012.5
20220119050242 62 151 0.0 0.0 0.00 0.00 0.00 82 1012.7
20220119044557 62 151 0.0 0.0 0.00 0.00 0.00 82 1012.6
20220119043048 62 151 0.0 0.0 0.00 0.00 0.00 82 1012.7
20220119041613 62 151 0.0 0.0 0.00 0.00 0.00 81 1012.7
20220119040151 63 151 0.0 0.0 0.00 0.00 0.00 80 1012.7
20220119034601 63 151 0.0 0.0 0.00 0.00 0.00 79 1012.7
20220119033108 63 151 0.0 0.0 0.00 0.00 0.00 77 1012.6
20220119031608 64 151 0.0 0.0 0.00 0.00 0.00 76 1012.6
20220119030106 64 147 0.0 0.0 0.00 0.00 0.00 76 1012.4
20220119024603 64 171 0.0 0.0 0.00 0.00 0.00 74 1012.6
20220119023057 64 159 0.0 0.0 0.00 0.00 0.00 74 1012.4
20220119021601 65 195 0.0 0.0 0.00 0.00 0.00 73 1012.4
20220119020136 65 195 0.0 0.0 0.00 0.00 0.00 72 1012.4
20220119014559 65 196 0.0 0.0 0.00 0.00 0.00 71 1012.4
20220119013121 66 196 0.0 0.0 0.00 0.00 0.00 70 1012.3
20220119011544 67 196 0.0 0.0 0.00 0.00 0.00 68 1012.3
20220119010210 67 163 0.0 0.0 0.00 0.00 0.00 68 1012.1
20220119004529 67 152 0.0 0.0 0.00 0.00 0.00 67 1012.0
20220119003036 68 155 0.0 0.0 0.00 0.00 0.00 64 1012.0
20220119001546 69 202 1.0 8.0 0.00 0.00 0.00 63 1011.9
20220119000059 69 196 1.0 7.0 0.00 0.00 0.00 61 1011.9
20220118234505 70 223 0.0 0.0 0.00 0.00 0.00 60 1012.0
20220118233249 70 213 0.0 0.0 0.00 0.00 0.00 58 1012.0
20220118231655 71 178 0.0 0.0 0.00 0.00 0.00 57 1012.1
20220118230116 71 184 0.0 0.0 0.00 0.00 0.00 56 1012.2
20220118224708 71 205 0.0 6.0 0.00 0.00 0.00 55 1012.3
20220118223128 73 209 4.0 8.0 0.00 0.00 0.00 53 1012.1
20220118221713 73 213 3.0 8.0 0.00 0.00 0.00 51 1012.2
20220118220144 74 210 3.0 9.0 0.00 0.00 0.00 51 1012.2
20220118214703 74 202 1.0 8.0 0.00 0.00 0.00 49 1012.2
20220118213206 73 150 3.0 11.0 0.00 0.00 0.00 51 1012.3
20220118211641 74 214 3.0 10.0 0.00 0.00 0.00 50 1012.4
20220118210200 73 215 5.0 11.0 0.00 0.00 0.00 51 1012.5
20220118204712 73 171 2.0 10.0 0.00 0.00 0.00 51 1012.4
20220118203139 74 155 4.0 12.0 0.00 0.00 0.00 51 1012.5
20220118201612 75 205 4.0 10.0 0.00 0.00 0.00 49 1012.6
20220118200155 74 188 5.0 13.0 0.00 0.00 0.00 49 1012.7
20220118194624 74 217 4.0 11.0 0.00 0.00 0.00 49 1013.0
20220118193059 73 286 4.0 12.0 0.00 0.00 0.00 52 1013.5
20220118191634 73 128 4.0 11.0 0.00 0.00 0.00 51 1013.7
20220118190058 74 238 4.0 13.0 0.00 0.00 0.00 49 1014.1
20220118184552 73 195 4.0 9.0 0.00 0.00 0.00 51 1014.3
20220118183212 73 107 3.0 12.0 0.00 0.00 0.00 51 1014.7
20220118181543 72 229 3.0 9.0 0.00 0.00 0.00 53 1015.0
20220118180024 72 154 2.0 11.0 0.00 0.00 0.00 55 1015.8
20220118174623 72 236 5.0 12.0 0.00 0.00 0.00 53 1016.1
20220118173038 70 213 0.0 5.0 0.00 0.00 0.00 57 1016.2
20220118171539 70 170 0.0 4.0 0.00 0.00 0.00 59 1016.3
20220118170031 70 163 0.0 6.0 0.00 0.00 0.00 60 1016.7
20220118164515 68 163 0.0 3.0 0.00 0.00 0.00 63 1016.7
20220118163028 67 167 0.0 6.0 0.00 0.00 0.00 62 1016.9
20220118161538 68 164 0.0 4.0 0.00 0.00 0.00 61 1016.8
20220118160006 66 187 0.0 4.0 0.00 0.00 0.00 64 1017.0
20220118154504 66 183 0.0 0.0 0.00 0.00 0.00 66 1016.9
20220118153219 64 188 0.0 0.0 0.00 0.00 0.00 69 1016.9
20220118151836 62 201 0.0 0.0 0.00 0.00 0.00 72 1016.9
20220118150111 60 202 0.0 0.0 0.00 0.00 0.00 76 1016.9
20220118144702 57 202 0.0 0.0 0.00 0.00 0.00 80 1016.8
20220118143140 56 202 0.0 0.0 0.00 0.00 0.00 82 1016.7
20220118141547 55 202 0.0 0.0 0.00 0.00 0.00 83 1016.7
20220118140036 53 202 0.0 0.0 0.00 0.00 0.00 85 1016.8
20220118134552 53 202 0.0 0.0 0.00 0.00 0.00 86 1016.9
20220118133057 52 202 0.0 0.0 0.00 0.00 0.00 86 1016.9
20220118131542 52 202 0.0 0.0 0.00 0.00 0.00 86 1016.9
20220118130150 52 202 0.0 0.0 0.00 0.00 0.00 87 1016.6
20220118124530 51 202 0.0 0.0 0.00 0.00 0.00 87 1016.6
20220118123106 51 202 0.0 0.0 0.00 0.00 0.00 87 1016.3
20220118121530 50 202 0.0 0.0 0.00 0.00 0.00 87 1016.3
20220118120027 50 202 0.0 0.0 0.00 0.00 0.00 86 1016.3